RYR430 LGSK-LGAV

Flight info

Callsign RYR430
Flight time 0h 30m
Altitude 15000
Route SIGFO M749 ROPOX
Aircraft B738/M-SDE2E3FGHIRWXY/LB1

Departure

Time 2026-04-22 07:23
Airport Skiathos Island National Airport (LGSK)

Arrival

Time 2026-04-22 07:54
Airport Athens Eleftherios Venizelos International Airport (LGAV)
Time Latitude Longitude Altitude Speed Heading
2026-04-22 07:04 39.17647 23.50188 32 ft 0 kts 291°
2026-04-22 07:16 39.17647 23.50190 34 ft 1 kts 291°
2026-04-22 07:16 39.17641 23.50208 34 ft 3 kts 308°
2026-04-22 07:17 39.17627 23.50222 35 ft 3 kts 346°
2026-04-22 07:17 39.17621 23.50215 34 ft 3 kts 278°
2026-04-22 07:17 39.17620 23.50208 34 ft 2 kts 258°
2026-04-22 07:17 39.17622 23.50222 35 ft 3 kts 197°
2026-04-22 07:18 39.17641 23.50224 34 ft 3 kts 185°
2026-04-22 07:18 39.17658 23.50228 35 ft 3 kts 197°
2026-04-22 07:18 39.17674 23.50236 34 ft 1 kts 199°
2026-04-22 07:18 39.17676 23.50237 34 ft 0 kts 199°
2026-04-22 07:20 39.17673 23.50236 34 ft 2 kts 199°
2026-04-22 07:20 39.17619 23.50212 32 ft 15 kts 196°
2026-04-22 07:21 39.17531 23.50267 34 ft 14 kts 166°
2026-04-22 07:21 39.17423 23.50230 31 ft 21 kts 199°
2026-04-22 07:21 39.17263 23.50160 22 ft 26 kts 197°
2026-04-22 07:21 39.17101 23.50088 19 ft 18 kts 200°
2026-04-22 07:22 39.17033 23.50028 15 ft 10 kts 182°
2026-04-22 07:22 39.17016 23.50074 15 ft 7 kts 55°
2026-04-22 07:22 39.17060 23.50076 17 ft 7 kts 355°
2026-04-22 07:22 39.17104 23.50088 19 ft 6 kts 19°
2026-04-22 07:23 39.17283 23.50167 23 ft 69 kts 19°
2026-04-22 07:23 39.18007 23.50488 46 ft 149 kts 19°
2026-04-22 07:23 39.19124 23.51015 575 ft 180 kts 19°
2026-04-22 07:23 39.20302 23.51597 1720 ft 181 kts 18°
2026-04-22 07:24 39.21450 23.52218 2763 ft 179 kts 20°
2026-04-22 07:24 39.22663 23.52732 3595 ft 191 kts 14°
2026-04-22 07:24 39.24022 23.53271 4108 ft 212 kts 14°
2026-04-22 07:24 39.25455 23.53860 4838 ft 218 kts 11°
2026-04-22 07:25 39.26821 23.54783 5658 ft 231 kts 43°
2026-04-22 07:25 39.27607 23.56565 6507 ft 238 kts 73°
2026-04-22 07:25 39.27673 23.58730 7275 ft 242 kts 106°
2026-04-22 07:25 39.27161 23.60777 8065 ft 245 kts 111°
2026-04-22 07:26 39.26394 23.62737 8821 ft 245 kts 137°
2026-04-22 07:26 39.24988 23.63868 9599 ft 236 kts 172°
2026-04-22 07:26 39.23391 23.63945 10356 ft 228 kts 198°
2026-04-22 07:26 39.21877 23.63385 11097 ft 226 kts 205°
2026-04-22 07:27 39.20382 23.62701 11846 ft 229 kts 206°
2026-04-22 07:27 39.18867 23.62001 12602 ft 232 kts 207°
2026-04-22 07:27 39.17246 23.61623 13286 ft 248 kts 182°
2026-04-22 07:27 39.15485 23.61863 13705 ft 271 kts 179°
2026-04-22 07:28 39.11391 23.62512 14303 ft 315 kts 178°
2026-04-22 07:28 39.09188 23.62863 14856 ft 321 kts 179°
2026-04-22 07:28 39.06962 23.63211 14930 ft 322 kts 179°
2026-04-22 07:29 39.04742 23.63552 14969 ft 322 kts 179°
2026-04-22 07:29 39.02513 23.63887 14970 ft 323 kts 179°
2026-04-22 07:29 39.00282 23.64218 14971 ft 322 kts 179°
2026-04-22 07:29 38.98054 23.64547 14974 ft 322 kts 179°
2026-04-22 07:30 38.95816 23.64876 14991 ft 330 kts 179°
2026-04-22 07:30 38.93444 23.65216 15010 ft 355 kts 179°
2026-04-22 07:30 38.90908 23.65578 15002 ft 379 kts 178°
2026-04-22 07:30 38.88251 23.65965 14996 ft 387 kts 178°
2026-04-22 07:31 38.85566 23.66365 14963 ft 387 kts 178°
2026-04-22 07:31 38.82894 23.66767 14972 ft 386 kts 178°
2026-04-22 07:31 38.80229 23.67166 14972 ft 385 kts 178°
2026-04-22 07:31 38.77567 23.67561 14975 ft 385 kts 178°
2026-04-22 07:32 38.74943 23.67949 14974 ft 385 kts 178°
2026-04-22 07:32 38.72251 23.68346 14989 ft 385 kts 178°
2026-04-22 07:32 38.69617 23.68731 14975 ft 386 kts 178°
2026-04-22 07:32 38.66952 23.69122 14975 ft 386 kts 178°
2026-04-22 07:33 38.64284 23.69514 14959 ft 385 kts 178°
2026-04-22 07:33 38.61616 23.69906 14977 ft 385 kts 178°
2026-04-22 07:33 38.58951 23.70296 14969 ft 386 kts 178°
2026-04-22 07:33 38.56279 23.70687 14973 ft 387 kts 178°
2026-04-22 07:34 38.53607 23.71077 14977 ft 387 kts 178°
2026-04-22 07:34 38.50934 23.71467 14977 ft 387 kts 178°
2026-04-22 07:34 38.48255 23.71858 14975 ft 387 kts 178°
2026-04-22 07:34 38.45572 23.72249 14973 ft 387 kts 178°
2026-04-22 07:35 38.42895 23.72639 14980 ft 387 kts 178°
2026-04-22 07:35 38.40218 23.73029 14961 ft 387 kts 178°
2026-04-22 07:35 38.37535 23.73420 14964 ft 387 kts 178°
2026-04-22 07:35 38.34862 23.73809 14970 ft 387 kts 178°
2026-04-22 07:36 38.32181 23.74199 14974 ft 387 kts 178°
2026-04-22 07:36 38.29507 23.74587 14974 ft 387 kts 178°
2026-04-22 07:36 38.26841 23.74974 14977 ft 387 kts 178°
2026-04-22 07:36 38.24155 23.75363 14971 ft 387 kts 178°
2026-04-22 07:37 38.21485 23.75751 14961 ft 381 kts 178°
2026-04-22 07:37 38.18939 23.76095 14949 ft 364 kts 183°
2026-04-22 07:37 38.16505 23.75682 14636 ft 348 kts 204°
2026-04-22 07:37 38.14383 23.74346 14248 ft 336 kts 217°
2026-04-22 07:38 38.12443 23.72720 13816 ft 333 kts 218°
2026-04-22 07:38 38.10537 23.71075 13370 ft 330 kts 218°
2026-04-22 07:38 38.08646 23.69446 13022 ft 325 kts 218°
2026-04-22 07:38 38.06780 23.67852 12622 ft 323 kts 218°
2026-04-22 07:39 38.04915 23.66270 12210 ft 321 kts 218°
2026-04-22 07:39 38.03058 23.64703 11789 ft 320 kts 217°
2026-04-22 07:39 38.01206 23.63150 11383 ft 318 kts 217°
2026-04-22 07:39 37.99363 23.61603 10977 ft 317 kts 217°
2026-04-22 07:40 37.97545 23.60080 10825 ft 308 kts 217°
2026-04-22 07:40 37.95795 23.58616 10750 ft 297 kts 217°
2026-04-22 07:40 37.94124 23.57221 10658 ft 286 kts 217°
2026-04-22 07:40 37.92481 23.55849 10477 ft 281 kts 217°
2026-04-22 07:41 37.90858 23.54493 10288 ft 275 kts 217°
2026-04-22 07:41 37.89289 23.53185 10229 ft 265 kts 218°
2026-04-22 07:41 37.87782 23.51930 10194 ft 252 kts 218°
2026-04-22 07:41 37.86348 23.50736 9970 ft 243 kts 218°
2026-04-22 07:42 37.84945 23.49565 9684 ft 237 kts 218°
2026-04-22 07:42 37.83615 23.48461 9560 ft 220 kts 218°
2026-04-22 07:42 37.82373 23.47431 9444 ft 207 kts 218°
2026-04-22 07:42 37.81181 23.46447 9205 ft 203 kts 215°
2026-04-22 07:43 37.79800 23.45961 8852 ft 213 kts 185°
2026-04-22 07:43 37.78344 23.46179 8685 ft 209 kts 169°
2026-04-22 07:43 37.77042 23.46899 8569 ft 202 kts 151°
2026-04-22 07:43 37.75958 23.48017 8318 ft 201 kts 137°
2026-04-22 07:44 37.75137 23.49455 7980 ft 204 kts 115°
2026-04-22 07:44 37.74666 23.51134 7692 ft 203 kts 107°
2026-04-22 07:44 37.74277 23.52819 7377 ft 202 kts 106°
2026-04-22 07:44 37.73889 23.54539 7078 ft 200 kts 106°
2026-04-22 07:45 37.73509 23.56225 6796 ft 198 kts 106°
2026-04-22 07:45 37.73130 23.57896 6492 ft 198 kts 105°
2026-04-22 07:45 37.72752 23.59557 6204 ft 196 kts 105°
2026-04-22 07:45 37.72381 23.61181 5906 ft 194 kts 106°
2026-04-22 07:46 37.72007 23.62816 5615 ft 193 kts 106°
2026-04-22 07:46 37.71638 23.64423 5397 ft 187 kts 106°
2026-04-22 07:46 37.71273 23.66009 5309 ft 189 kts 106°
2026-04-22 07:46 37.70903 23.67617 5227 ft 192 kts 106°
2026-04-22 07:47 37.70583 23.69258 5131 ft 192 kts 97°
2026-04-22 07:47 37.70563 23.70935 5041 ft 190 kts 82°
2026-04-22 07:47 37.70877 23.72542 4954 ft 188 kts 65°
2026-04-22 07:47 37.71505 23.73966 4869 ft 185 kts 51°
2026-04-22 07:48 37.72390 23.75144 4691 ft 187 kts 38°
2026-04-22 07:48 37.73414 23.76187 4514 ft 190 kts 35°
2026-04-22 07:48 37.74454 23.77197 4308 ft 187 kts 34°
2026-04-22 07:48 37.75475 23.78178 4108 ft 182 kts 34°
2026-04-22 07:49 37.76476 23.79137 3929 ft 181 kts 34°
2026-04-22 07:49 37.77473 23.80091 3883 ft 178 kts 33°
2026-04-22 07:49 37.78474 23.81047 3683 ft 186 kts 33°
2026-04-22 07:49 37.79492 23.82023 3455 ft 180 kts 33°
2026-04-22 07:50 37.80152 23.82657 3288 ft 173 kts 33°
2026-04-22 07:50 37.81369 23.83823 2996 ft 159 kts 33°
2026-04-22 07:50 37.82241 23.84655 2796 ft 159 kts 33°
2026-04-22 07:50 37.83112 23.85488 2585 ft 154 kts 33°
2026-04-22 07:51 37.83954 23.86295 2392 ft 151 kts 34°
2026-04-22 07:51 37.84795 23.87098 2197 ft 152 kts 35°
2026-04-22 07:51 37.85640 23.87907 1988 ft 152 kts 35°
2026-04-22 07:51 37.86197 23.88440 1855 ft 151 kts 34°
2026-04-22 07:52 37.87033 23.89239 1652 ft 151 kts 36°
2026-04-22 07:52 37.87866 23.90035 1456 ft 150 kts 36°
2026-04-22 07:52 37.88698 23.90833 1247 ft 149 kts 37°
2026-04-22 07:52 37.89521 23.91630 1028 ft 149 kts 37°
2026-04-22 07:53 37.90340 23.92421 827 ft 147 kts 37°
2026-04-22 07:53 37.91151 23.93195 661 ft 145 kts 36°
2026-04-22 07:53 37.91966 23.93956 481 ft 146 kts 36°
2026-04-22 07:53 37.92777 23.94727 305 ft 145 kts 36°
2026-04-22 07:54 37.93518 23.95432 283 ft 115 kts 37°
2026-04-22 07:54 37.94033 23.95920 281 ft 70 kts 37°
2026-04-22 07:54 37.94312 23.96183 274 ft 38 kts 37°
2026-04-22 07:54 37.94512 23.96304 270 ft 29 kts 10°
2026-04-22 07:55 37.94575 23.96313 270 ft 0 kts
2026-04-22 07:55 37.94580 23.96313 270 ft 1 kts
2026-04-22 07:55 37.94591 23.96315 269 ft 2 kts
2026-04-22 07:55 37.94605 23.96318 269 ft 2 kts 10°
2026-04-22 07:56 37.94624 23.96318 269 ft 4 kts 351°
2026-04-22 07:56 37.94655 23.96281 269 ft 11 kts 283°
2026-04-22 07:56 37.94603 23.96178 270 ft 15 kts 239°
2026-04-22 07:56 37.94597 23.96047 271 ft 15 kts 238°
2026-04-22 07:57 37.94506 23.95951 272 ft 20 kts 217°
2026-04-22 07:57 37.94382 23.95834 274 ft 22 kts 217°
2026-04-22 07:57 37.94259 23.95717 279 ft 22 kts 217°
2026-04-22 07:57 37.94140 23.95603 279 ft 21 kts 217°
2026-04-22 07:58 37.94024 23.95492 280 ft 21 kts 217°
2026-04-22 07:58 37.93914 23.95382 278 ft 20 kts 231°
2026-04-22 07:58 37.93856 23.95227 279 ft 19 kts 238°
2026-04-22 07:58 37.93757 23.95119 280 ft 19 kts 217°
2026-04-22 07:59 37.93655 23.95022 285 ft 17 kts 217°
2026-04-22 07:59 37.93630 23.94959 282 ft 7 kts 272°
2026-04-22 07:59 37.93644 23.94903 284 ft 7 kts 302°
2026-04-22 07:59 37.93656 23.94884 282 ft 1 kts 310°
2026-04-22 08:00 37.93657 23.94883 282 ft 0 kts 310°
2026-04-22 08:01 37.93656 23.94883 282 ft 0 kts 310°